STARLINK-2465 (48124 NORAD) Tracking and Keplerian Element Data

This shows tracking and keplerian element data for the satellite.

Feedback or suggestion? Click here.




ElementValue
Catalog48124
NameSTARLINK-2465
Epoch Orbit181
Epoch Day136.83334491
Epoch Year2021
RAAN145.7884
Inclination53.047
Eccentricity0.0002444
Argument of Perigee12.7006
Mean Anonmoly149.123
Mean Motion15.73223803
Decay Rate-0.00046518
L11 48124U 21027AJ 21136.83334491 -.00046518 00000-0 -32839-3 0 9993
L22 48124 53.0470 145.7884 0002444 12.7006 149.1230 15.73223803 1811

Live tracking and technical data element details for STARLINK-2465 (NORAD 48124). STARLINK-2465 can be tracked NOW for your location showing map with azimuth and elevation plus other details from your city location.

Track the satellite on the map from your city or location and see movement details for azimuth, elevation, latitude, longitude, range, height, and movement on the map or in text.







IsCatalogInMostPopularTable: catalog: 48124, numindb: 14
Update: records affected: 1



GetName: 48124 STARLINK-2465

Hit Count: updated at: Mon, 17 May 2021 16:10:21 GMT